x

Buzzards Bay, Ma (buzm3) Weather Station

3:00 - Fri 29th Apr 2016 All times are EDT. -4 hours from GMT.

  • Wind
    11mph, 13mph gusts
  • Air Temp 46°f
  • Sea Pressure 1020.6mb
  • Buzzards Bay, Ma
  • Buzzards Bay, Ma

More Historic Weather Station data

Upgrade to MSW Pro to gain access to the past 30 days of data for over 8000 Wavebouys and Weather Stations around the globe.

Join Pro

Comparision Forecast

View Surf forecast
   
ven. 04/29 3:00 11 13 mph 1020.6mb 46f
2:00 13 15 mph 1021.2mb 46f
1:00 11 13 mph 1022mb 45f
12:00 15
mph
1022.4mb 45f
11:00 13 15 mph 1022.2mb 45f
10:00 18 20 mph 1022.1mb 44f
9:00 17 18 mph 1022mb 44f
8:00 17 18 mph 1021.8mb 44f
7:00 18 20 mph 1021.6mb 44f
6:00 15 16 mph 1020.8mb 44f
5:00 10 11 mph 1020.5mb 45f
4:00 10 11 mph 1020.2mb 45f
3:00 10 11 mph 1019.6mb 44f
2:00 10 11 mph 1019.3mb 45f
1:00 11
mph
1019.5mb 45f
12:00 10
mph
1019.7mb 46f
jeu. 04/28 11:00 8 9 mph 1019.8mb 44f
10:00 10 11 mph 1019.7mb 45f
9:00 10 11 mph 1019.3mb 46f
8:00 10 11 mph 1019mb 46f
7:00 13 14 mph 1018.7mb 46f
6:00 14 15 mph 1018.6mb 46f
5:00 16 17 mph 1018.2mb 46f
4:00 15 17 mph 1017.6mb 46f
3:00 13 14 mph 1017.7mb 46f
2:00 16 17 mph 1018.3mb 46f
1:00 15 17 mph 1018.3mb 46f
12:00 8 9 mph 1018.5mb 47f
11:00 8 9 mph 1018.7mb 46f
10:00 9
mph
1018.6mb 46f
9:00 10
mph
1018.4mb 45f
8:00 13
mph
1017.9mb 45f
7:00 11 13 mph 1017.5mb 45f
6:00 16 18 mph 1016.1mb 44f
5:00 17 22 mph 1014.9mb 45f
4:00 17 18 mph 1014.2mb 46f
3:00 10 11 mph 1013.2mb 47f
2:00 13 14 mph 1013mb 47f
1:00 14 15 mph 1012.9mb 47f
12:00 14 15 mph 1012.7mb 47f
mer. 04/27 11:00 15 16 mph 1012.4mb 46f
10:00 18 20 mph 1011.9mb 46f
9:00 18 21 mph 1011.7mb 46f
8:00 17 20 mph 1011.2mb 46f
7:00 20 21 mph 1011.6mb 45f
6:00 20 21 mph 1011.9mb 45f
5:00 18 20 mph 1012.1mb 45f
4:00 20 21 mph 1012.4mb 44f
3:00 16 18 mph 1012.9mb 44f
2:00 15 16 mph 1013.2mb 44f
1:00 14 15 mph 1013.8mb 43f
12:00 13 14 mph 1014mb 43f
11:00 6
mph
1014mb 43f
10:00 5
mph
1014.1mb 43f
9:00 6 7 mph 1014mb 43f
7:00 2 3 mph 1013.7mb 42f
6:00 2 3 mph 1013.5mb 40f
5:00 8 9 mph 1012.9mb 39f
4:00 9 10 mph 1012.8mb 38f
3:00 6 7 mph 1012.2mb 39f
2:00 9 10 mph 1011.8mb 39f
1:00 10 11 mph 1012mb 39f
12:00 9 10 mph 1012.5mb 39f
mar. 04/26 11:00 14 17 mph 1011.2mb 40f
10:00 16 17 mph 1011.2mb 40f
9:00 16 17 mph 1010.6mb 41f
8:00 21 23 mph 1009.6mb 41f
7:00 23 25 mph 1008.5mb 41f
6:00 20 22 mph 1008.1mb 42f
5:00 21 22 mph 1007.5mb 41f
4:00 25 26 mph 1006.4mb 41f
3:00 24 26 mph 1006mb 42f
2:00 26 30 mph 1005.7mb 43f
1:00 23 24 mph 1005.7mb 43f
12:00 22 24 mph 1005.7mb 42f
11:00 21 23 mph 1007.3mb 45f
10:00 18 21 mph 1008.2mb 44f
9:00 18 21 mph 1009.1mb 45f
8:00 29 30 mph 1008.6mb 44f
7:00 23 25 mph 1011mb 45f
6:00 22 25 mph 1011.2mb 47f
5:00 13 14 mph 1010.7mb 48f
4:00 3 5 mph 1011.6mb 48f
3:00 2
mph
1011.5mb 48f
2:00 1
mph
1012.5mb 48f
1:00 3 5 mph 1012.8mb 48f
12:00 6
mph
1013.5mb 49f
lun. 04/25 11:00 7 8 mph 1013.8mb 49f
10:00 15 16 mph 1013.9mb 50f
9:00 13 14 mph 1013.8mb 49f